Find Starlink 30404

NORAD ID: 57853 Int'l Des: 2023-141 Owner: SPXS Country: US Constellation: starlink operational
LEOCIRCULAR

リアルタイム位置

3D地球を読み込み中...

Starlink 30404について

説明を読み込み中...

次回通過

Passes for default location (London). Set your location on the main map for personalized predictions.

高度履歴

Loading altitude history...

軌道要素

1 57853U 23141P 26125.12385120 .00000964 00000-0 44652-4 0 9991
2 57853 53.1616 21.6138 0001152 71.1403 288.9722 15.30199010148974
Epoch: May 5, 2026 • Age: 13 hours

現在のステータス

高度 482.6 km
速度 7.62 km/s
衛星直下点 -23.65°S, 108.1°E
打ち上げ日 Sep 12, 2023
運用期間 2.6 years
タイプ internet

技術仕様

分類 Payload
質量 730.00 kg
乾燥質量 700.00 kg
総質量 730.00 kg
長さ 0.30 m
直径 4.10 m
スパン 29.00 m
形状 Box + pan
製造者 SPXS
バスタイプ Starlink V2M
フェーズステータス In Orbit
所有者/国 SPXS/US

Most Searched